Home   Weather   Erftstadt   Past weeks

Flag for Germany Past Weather in Erftstadt, North Rhine-Westphalia, Germany — Yesterday and Last 2 Weeks

Now
70 °F

Passing clouds.


Feels Like: 70 °F
Forecast: 52 / 71 °F
Wind: 5 mph from Southeast

Location: Noervenich

Current Time: Sep 27, 2016 at 3:57:18 PM

Latest Report: Sep 27, 2016 at 2:20 PM


Visibility: N/A

Pressure: 30.30 "Hg

Humidity: 46%

Dew Point: 48 °F

Location of ErftstadtLocation

Past Weather in Erftstadt — Graph

°F

Erftstadt Temperature Yesterday

Maximum temperature yesterday: 68 °F (at 3:20 PM)
Minimum temperature yesterday: 50 °F (at 7:20 AM)
Average temperature yesterday: 59 °F

High & Low Weather Summary for the Past Weeks

 TemperatureHumidityPressure
High90 °F (Sep 13, 1:20 PM)100% (Sep 18, 5:20 AM)30.33 "Hg (Sep 18, 5:20 AM)
Low46 °F (Sep 22, 2:20 AM)27% (Sep 14, 4:20 PM)29.80 "Hg (Sep 15, 2:20 PM)
Average64 °F70%30.07 "Hg
* Reported Sep 12 2:20 PM — Sep 27 2:20 PM, Erftstadt, Weather by CustomWeather, © 2016

Note: Actual official high and low records may vary slightly from our data, if they occured in-between our weather recording intervals... More about our weather records

Advertising

Erftstadt Weather History for the Previous 24 Hours

Scroll right to see more
 ConditionsComfort  
Time TempWeatherWind HumidityBarometerVisibility
2:20 PM
Tue, Sep 27
70 °FPassing clouds.5 mph46%30.30 "HgN/A
1:20 PM68 °FMild.3 mph53%30.30 "HgN/A
12:20 PM64 °FMild.2 mph60%30.33 "HgN/A
11:20 AM63 °FPassing clouds.2 mph64%30.33 "HgN/A
10:20 AM59 °FPassing clouds.3 mph77%30.30 "HgN/A
9:20 AM54 °FPassing clouds.6 mph88%30.30 "HgN/A
8:20 AM48 °FPassing clouds.2 mph87%30.30 "HgN/A
7:20 AM48 °FPassing clouds.6 mph94%30.27 "HgN/A
6:20 AM52 °FPassing clouds.1 mph88%30.27 "HgN/A
5:20 AM52 °FPassing clouds.5 mph88%30.27 "HgN/A
4:20 AM54 °FPassing clouds.6 mph82%30.27 "HgN/A
3:20 AM54 °FPassing clouds.6 mph82%30.27 "HgN/A
2:20 AM55 °FPartly cloudy.6 mph77%30.24 "HgN/A
1:20 AM55 °FPartly cloudy.5 mph77%30.24 "HgN/A
12:20 AM55 °FPartly cloudy.6 mph77%30.24 "HgN/A
11:20 PM
Mon, Sep 26
55 °FPassing clouds.6 mph72%30.24 "HgN/A
10:20 PM55 °FPassing clouds.2 mph72%30.24 "HgN/A
9:20 PM59 °FPassing clouds.6 mph63%30.24 "HgN/A
8:20 PM59 °FPassing clouds.6 mph59%30.24 "HgN/A
7:20 PM61 °FPartly sunny.6 mph55%30.24 "HgN/A
6:20 PM64 °FPartly sunny.5 mph46%30.21 "HgN/A
5:20 PM66 °FPartly sunny.6 mph43%30.21 "HgN/A
4:20 PM68 °FPartly sunny.5 mph40%30.21 "HgN/A
3:20 PM68 °FScattered clouds.3 mph43%30.21 "HgN/A
Weather by CustomWeather, © 2016

See weather overviewHow to use our weather pages